| time (UTC) | temp C | wind direction | speed KPH | gust KPH | rain 1hr cm | rain 24hr cm | rain mn cm | humidity % | barometer mb |
| 20260510060949 | 21 | 149 | 0.0 | 0.0 | 0.00 | 0.00 | 0.00 | 90 | 1012.2 |
| 20260510060446 | 22 | 149 | 0.0 | 0.0 | 0.00 | 0.00 | 0.00 | 90 | 1012.3 |
| 20260510055942 | 22 | 150 | 0.0 | 0.0 | 0.00 | 0.00 | 0.00 | 90 | 1012.3 |
| 20260510055438 | 22 | 149 | 0.0 | 0.0 | 0.00 | 0.00 | 0.00 | 89 | 1012.3 |
| 20260510054936 | 22 | 152 | 0.0 | 0.0 | 0.00 | 0.00 | 0.00 | 89 | 1012.2 |
| 20260510054431 | 22 | 151 | 0.0 | 0.0 | 0.00 | 0.00 | 0.00 | 89 | 1012.3 |
| 20260510053927 | 22 | 150 | 0.0 | 0.0 | 0.00 | 0.00 | 0.00 | 89 | 1012.1 |
| 20260510053422 | 22 | 150 | 0.0 | 0.0 | 0.00 | 0.00 | 0.00 | 89 | 1012.3 |
| 20260510052919 | 22 | 153 | 0.0 | 0.0 | 0.00 | 0.00 | 0.00 | 88 | 1012.2 |
| 20260510052414 | 22 | 153 | 0.0 | 0.0 | 0.00 | 0.00 | 0.00 | 88 | 1012.4 |
| 20260510051911 | 22 | 153 | 0.0 | 0.0 | 0.00 | 0.00 | 0.00 | 88 | 1012.4 |
| 20260510051408 | 22 | 147 | 0.0 | 0.0 | 0.00 | 0.00 | 0.00 | 89 | 1012.5 |
| 20260510050904 | 22 | 155 | 0.0 | 0.0 | 0.00 | 0.00 | 0.00 | 90 | 1012.1 |
| 20260510050401 | 22 | 157 | 0.0 | 0.0 | 0.00 | 0.00 | 0.00 | 91 | 1012.1 |
| 20260510045858 | 22 | 158 | 0.0 | 0.0 | 0.00 | 0.13 | 0.13 | 92 | 1012.2 |
| 20260510045355 | 22 | 158 | 0.0 | 0.0 | 0.00 | 0.13 | 0.13 | 92 | 1012.0 |
| 20260510044852 | 22 | 159 | 0.0 | 0.0 | 0.00 | 0.13 | 0.13 | 93 | 1012.2 |
| 20260510044348 | 22 | 159 | 0.0 | 0.0 | 0.00 | 0.13 | 0.13 | 93 | 1012.1 |
| 20260510043845 | 22 | 159 | 0.0 | 0.0 | 0.00 | 0.13 | 0.13 | 93 | 1012.1 |
| 20260510043341 | 22 | 159 | 0.0 | 0.0 | 0.00 | 0.13 | 0.13 | 92 | 1012.2 |
| 20260510042839 | 22 | 159 | 0.0 | 0.0 | 0.00 | 0.13 | 0.13 | 92 | 1011.9 |
| 20260510042335 | 22 | 159 | 0.0 | 0.0 | 0.00 | 0.13 | 0.13 | 92 | 1012.1 |
| 20260510041831 | 22 | 159 | 0.0 | 0.0 | 0.00 | 0.13 | 0.13 | 92 | 1012.2 |
| 20260510041329 | 22 | 159 | 0.0 | 0.0 | 0.00 | 0.13 | 0.13 | 92 | 1012.0 |
| 20260510040826 | 22 | 159 | 0.0 | 0.0 | 0.00 | 0.13 | 0.13 | 91 | 1012.1 |
| 20260510040322 | 23 | 159 | 0.0 | 0.0 | 0.00 | 0.13 | 0.13 | 91 | 1012.1 |
| 20260510035818 | 23 | 159 | 0.0 | 0.0 | 0.00 | 0.13 | 0.13 | 91 | 1012.0 |
| 20260510035314 | 23 | 159 | 0.0 | 0.0 | 0.00 | 0.13 | 0.13 | 91 | 1012.0 |
| 20260510034810 | 23 | 159 | 0.0 | 0.0 | 0.00 | 0.13 | 0.13 | 91 | 1012.0 |
| 20260510034308 | 23 | 159 | 0.0 | 0.0 | 0.00 | 0.13 | 0.13 | 91 | 1011.8 |
| 20260510033804 | 23 | 159 | 0.0 | 0.0 | 0.00 | 0.13 | 0.13 | 91 | 1011.8 |
| 20260510033301 | 23 | 159 | 0.0 | 0.0 | 0.00 | 0.13 | 0.13 | 90 | 1012.0 |
| 20260510032757 | 23 | 159 | 0.0 | 0.0 | 0.00 | 0.13 | 0.13 | 90 | 1011.7 |
| 20260510032254 | 23 | 159 | 0.0 | 0.0 | 0.00 | 0.13 | 0.13 | 90 | 1011.8 |
| 20260510031749 | 24 | 159 | 0.0 | 0.0 | 0.00 | 0.13 | 0.13 | 89 | 1011.7 |
| 20260510031245 | 24 | 159 | 0.0 | 0.0 | 0.00 | 0.13 | 0.13 | 88 | 1011.6 |
| 20260510030744 | 24 | 159 | 0.0 | 0.0 | 0.00 | 0.13 | 0.13 | 88 | 1011.5 |
| 20260510030237 | 25 | 159 | 0.0 | 0.0 | 0.00 | 0.13 | 0.13 | 88 | 1011.6 |
| 20260510025734 | 25 | 158 | 0.0 | 0.0 | 0.00 | 0.13 | 0.13 | 88 | 1011.4 |
| 20260510025232 | 25 | 158 | 0.0 | 0.0 | 0.00 | 0.13 | 0.13 | 88 | 1011.3 |
| 20260510024728 | 25 | 158 | 0.0 | 0.0 | 0.00 | 0.13 | 0.13 | 87 | 1011.1 |
| 20260510024225 | 25 | 158 | 0.0 | 0.0 | 0.00 | 0.13 | 0.13 | 87 | 1011.1 |
| 20260510023720 | 25 | 158 | 0.0 | 0.0 | 0.00 | 0.13 | 0.13 | 87 | 1011.1 |
| 20260510023218 | 25 | 155 | 0.0 | 0.0 | 0.00 | 0.13 | 0.13 | 87 | 1011.1 |
| 20260510022714 | 25 | 150 | 0.0 | 0.0 | 0.00 | 0.13 | 0.13 | 86 | 1011.1 |
| 20260510022214 | 25 | 148 | 0.0 | 0.0 | 0.00 | 0.13 | 0.13 | 86 | 1010.9 |
| 20260510021709 | 25 | 149 | 0.0 | 0.0 | 0.00 | 0.13 | 0.13 | 85 | 1011.0 |
| 20260510021207 | 26 | 149 | 0.0 | 0.0 | 0.00 | 0.13 | 0.13 | 85 | 1010.7 |
| 20260510020702 | 26 | 153 | 0.0 | 0.0 | 0.00 | 0.13 | 0.13 | 84 | 1010.7 |
| 20260510020202 | 26 | 153 | 0.0 | 0.0 | 0.00 | 0.13 | 0.13 | 84 | 1010.7 |
| 20260510015658 | 26 | 160 | 0.0 | 0.0 | 0.00 | 0.13 | 0.13 | 84 | 1010.8 |
| 20260510015155 | 26 | 161 | 0.0 | 0.0 | 0.00 | 0.13 | 0.13 | 84 | 1010.5 |
| 20260510014655 | 26 | 159 | 0.0 | 0.0 | 0.00 | 0.13 | 0.13 | 83 | 1010.7 |
| 20260510014153 | 26 | 158 | 0.0 | 0.0 | 0.00 | 0.13 | 0.13 | 83 | 1010.6 |
| 20260510013648 | 26 | 158 | 0.0 | 0.0 | 0.00 | 0.13 | 0.13 | 82 | 1010.6 |
| 20260510013144 | 26 | 158 | 0.0 | 0.0 | 0.00 | 0.13 | 0.13 | 81 | 1010.5 |
| 20260510012643 | 26 | 158 | 0.0 | 0.0 | 0.00 | 0.13 | 0.13 | 80 | 1010.7 |
| 20260510012140 | 27 | 158 | 0.0 | 0.0 | 0.00 | 0.13 | 0.13 | 79 | 1010.3 |
| 20260510011635 | 27 | 158 | 0.0 | 0.0 | 0.00 | 0.13 | 0.13 | 79 | 1010.3 |
| 20260510011131 | 27 | 158 | 0.0 | 0.0 | 0.00 | 0.13 | 0.13 | 78 | 1010.3 |
| 20260510010627 | 27 | 159 | 0.0 | 0.0 | 0.00 | 0.13 | 0.13 | 77 | 1010.1 |
| 20260510010124 | 27 | 158 | 0.0 | 0.0 | 0.00 | 0.13 | 0.13 | 76 | 1010.1 |
| 20260510005619 | 27 | 159 | 0.0 | 0.0 | 0.00 | 0.13 | 0.13 | 76 | 1010.3 |
| 20260510005117 | 28 | 150 | 0.0 | 0.0 | 0.00 | 0.13 | 0.13 | 75 | 1010.1 |
| 20260510004615 | 28 | 157 | 0.0 | 0.0 | 0.00 | 0.13 | 0.13 | 74 | 1009.8 |
| 20260510004113 | 28 | 153 | 0.0 | 0.0 | 0.00 | 0.13 | 0.13 | 72 | 1010.2 |
| 20260510003610 | 28 | 152 | 0.0 | 0.0 | 0.00 | 0.13 | 0.13 | 70 | 1010.1 |
| 20260510003105 | 28 | 152 | 0.0 | 0.0 | 0.00 | 0.13 | 0.13 | 69 | 1009.9 |
| 20260510002600 | 28 | 149 | 0.0 | 0.0 | 0.00 | 0.13 | 0.13 | 68 | 1009.9 |
| 20260510002057 | 28 | 162 | 0.0 | 0.0 | 0.00 | 0.13 | 0.13 | 67 | 1010.0 |
| 20260510001554 | 28 | 161 | 0.0 | 0.0 | 0.00 | 0.13 | 0.13 | 66 | 1010.0 |
| 20260510001054 | 28 | 139 | 0.0 | 0.0 | 0.00 | 0.13 | 0.13 | 66 | 1009.9 |
| 20260510000548 | 28 | 159 | 0.0 | 0.0 | 0.00 | 0.13 | 0.13 | 65 | 1009.7 |
| 20260510000046 | 29 | 152 | 0.0 | 0.0 | 0.00 | 0.13 | 0.13 | 64 | 1009.7 |
| 20260509235542 | 29 | 161 | 0.0 | 0.0 | 0.00 | 0.13 | 0.13 | 64 | 1009.8 |
| 20260509235038 | 29 | 151 | 1.6 | 3.2 | 0.00 | 0.13 | 0.13 | 63 | 1009.8 |
| 20260509234534 | 29 | 136 | 0.0 | 0.0 | 0.00 | 0.13 | 0.13 | 61 | 1009.5 |
| 20260509234033 | 29 | 153 | 0.0 | 0.0 | 0.00 | 0.13 | 0.13 | 59 | 1009.8 |
| 20260509233530 | 29 | 164 | 0.0 | 0.0 | 0.00 | 0.13 | 0.13 | 57 | 1009.9 |
| 20260509233027 | 29 | 166 | 0.0 | 0.0 | 0.00 | 0.13 | 0.13 | 56 | 1009.8 |
| 20260509232524 | 29 | 166 | 0.0 | 0.0 | 0.00 | 0.13 | 0.13 | 55 | 1009.5 |
| 20260509232020 | 29 | 166 | 0.0 | 0.0 | 0.00 | 0.13 | 0.13 | 56 | 1009.4 |
| 20260509231516 | 29 | 166 | 0.0 | 0.0 | 0.00 | 0.13 | 0.13 | 57 | 1009.3 |
| 20260509231015 | 30 | 166 | 0.0 | 0.0 | 0.00 | 0.13 | 0.13 | 59 | 1009.7 |
| 20260509230511 | 30 | 136 | 0.0 | 0.0 | 0.00 | 0.13 | 0.13 | 59 | 1009.3 |
| 20260509230008 | 30 | 151 | 0.0 | 0.0 | 0.00 | 0.13 | 0.13 | 63 | 1009.5 |
| 20260509225503 | 30 | 143 | 0.0 | 0.0 | 0.00 | 0.13 | 0.13 | 63 | 1009.7 |
| 20260509224959 | 30 | 152 | 0.0 | 0.0 | 0.00 | 0.13 | 0.13 | 62 | 1009.5 |
| 20260509224455 | 30 | 173 | 0.0 | 0.0 | 0.00 | 0.13 | 0.13 | 60 | 1009.4 |
| 20260509223952 | 31 | 157 | 1.6 | 3.2 | 0.00 | 0.13 | 0.13 | 61 | 1009.5 |
| 20260509223449 | 31 | 163 | 0.0 | 0.0 | 0.00 | 0.13 | 0.13 | 61 | 1009.3 |
| 20260509222946 | 31 | 163 | 0.0 | 0.0 | 0.00 | 0.13 | 0.13 | 60 | 1009.7 |
| 20260509222442 | 31 | 163 | 0.0 | 0.0 | 0.00 | 0.13 | 0.13 | 61 | 1009.1 |
| 20260509221938 | 30 | 163 | 0.0 | 0.0 | 0.00 | 0.13 | 0.13 | 60 | 1009.3 |
| 20260509221434 | 30 | 163 | 0.0 | 0.0 | 0.00 | 0.13 | 0.13 | 64 | 1009.3 |
| 20260509220930 | 30 | 166 | 0.0 | 0.0 | 0.00 | 0.13 | 0.13 | 64 | 1009.4 |
| 20260509220426 | 30 | 147 | 0.0 | 0.0 | 0.00 | 0.13 | 0.13 | 67 | 1009.2 |
| 20260509215922 | 29 | 146 | 0.0 | 0.0 | 0.00 | 0.13 | 0.13 | 69 | 1009.3 |
| 20260509215418 | 28 | 167 | 0.0 | 3.2 | 0.00 | 0.13 | 0.13 | 67 | 1009.3 |
| 20260509214916 | 28 | 147 | 0.0 | 0.0 | 0.00 | 0.13 | 0.13 | 70 | 1009.4 |
| 20260509214413 | 28 | 143 | 0.0 | 0.0 | 0.00 | 0.13 | 0.13 | 71 | 1009.5 |
| 20260509213910 | 27 | 146 | 0.0 | 0.0 | 0.00 | 0.13 | 0.13 | 71 | 1009.4 |
| 20260509213405 | 27 | 139 | 3.2 | 4.8 | 0.00 | 0.13 | 0.13 | 74 | 1009.3 |
| 20260509212903 | 27 | 164 | 4.8 | 8.0 | 0.00 | 0.13 | 0.13 | 74 | 1009.5 |
| 20260509212400 | 26 | 158 | 0.0 | 3.2 | 0.00 | 0.13 | 0.13 | 77 | 1009.5 |
| 20260509211856 | 25 | 175 | 4.8 | 8.0 | 0.00 | 0.13 | 0.13 | 78 | 1010.1 |
| 20260509211352 | 25 | 195 | 6.4 | 8.0 | 0.00 | 0.13 | 0.13 | 77 | 1010.3 |
| 20260509210849 | 25 | 162 | 4.8 | 4.8 | 0.00 | 0.13 | 0.13 | 77 | 1009.9 |
| 20260509210346 | 23 | 147 | 1.6 | 1.6 | 0.18 | 0.13 | 0.13 | 81 | 1010.4 |
| 20260509205846 | 23 | 164 | 1.6 | 3.2 | 0.36 | 0.13 | 0.13 | 79 | 1010.4 |
| 20260509205340 | 24 | 149 | 1.6 | 3.2 | 0.18 | 0.10 | 0.10 | 77 | 1010.4 |
| 20260509204837 | 25 | 188 | 1.6 | 3.2 | 0.00 | 0.08 | 0.08 | 70 | 1010.3 |
| 20260509204333 | 26 | 172 | 8.0 | 14.5 | 0.00 | 0.08 | 0.08 | 63 | 1010.3 |
| 20260509203830 | 27 | 131 | 4.8 | 8.0 | 0.00 | 0.08 | 0.08 | 60 | 1010.3 |
| 20260509203327 | 29 | 110 | 3.2 | 4.8 | 0.00 | 0.08 | 0.08 | 61 | 1010.6 |
| 20260509202823 | 31 | 153 | 6.4 | 8.0 | 0.00 | 0.08 | 0.08 | 64 | 1010.6 |
| 20260509202320 | 32 | 175 | 0.0 | 0.0 | 0.00 | 0.08 | 0.08 | 60 | 1010.5 |
| 20260509201819 | 32 | 175 | 3.2 | 4.8 | 0.00 | 0.08 | 0.08 | 59 | 1010.4 |
| 20260509201316 | 32 | 174 | 0.0 | 1.6 | 0.00 | 0.08 | 0.08 | 59 | 1010.3 |
| 20260509200813 | 32 | 193 | 1.6 | 3.2 | 0.00 | 0.08 | 0.08 | 58 | 1010.3 |
| 20260509200308 | 32 | 156 | 1.6 | 1.6 | 0.00 | 0.08 | 0.08 | 60 | 1010.3 |
| 20260509195804 | 32 | 174 | 1.6 | 1.6 | 0.00 | 0.08 | 0.08 | 62 | 1010.5 |
| 20260509195259 | 31 | 174 | 4.8 | 4.8 | 0.00 | 0.08 | 0.08 | 61 | 1010.4 |
| 20260509194759 | 31 | 173 | 0.0 | 0.0 | 0.00 | 0.08 | 0.08 | 65 | 1010.5 |
| 20260509194255 | 31 | 173 | 0.0 | 0.0 | 0.00 | 0.08 | 0.08 | 62 | 1010.6 |
| 20260509193752 | 32 | 173 | 0.0 | 0.0 | 0.00 | 0.08 | 0.08 | 63 | 1010.4 |
| 20260509193247 | 32 | 174 | 0.0 | 1.6 | 0.00 | 0.08 | 0.08 | 59 | 1010.8 |
| 20260509192743 | 32 | 159 | 0.0 | 0.0 | 0.00 | 0.08 | 0.08 | 60 | 1010.9 |
| 20260509192244 | 33 | 190 | 0.0 | 1.6 | 0.00 | 0.08 | 0.08 | 59 | 1011.0 |
| 20260509191740 | 32 | 164 | 0.0 | 0.0 | 0.00 | 0.08 | 0.08 | 63 | 1010.6 |
| 20260509191236 | 32 | 179 | 0.0 | 0.0 | 0.00 | 0.08 | 0.08 | 61 | 1011.2 |
| 20260509190732 | 32 | 178 | 0.0 | 0.0 | 0.00 | 0.08 | 0.08 | 62 | 1011.0 |
| 20260509190229 | 32 | 174 | 1.6 | 1.6 | 0.00 | 0.08 | 0.08 | 63 | 1011.0 |
| 20260509185727 | 32 | 162 | 0.0 | 0.0 | 0.00 | 0.08 | 0.08 | 63 | 1011.0 |
| 20260509185223 | 32 | 179 | 0.0 | 0.0 | 0.00 | 0.08 | 0.08 | 64 | 1011.1 |
| 20260509184721 | 32 | 170 | 6.4 | 9.7 | 0.00 | 0.08 | 0.08 | 62 | 1011.2 |
| 20260509184218 | 31 | 164 | 0.0 | 0.0 | 0.00 | 0.08 | 0.08 | 65 | 1011.3 |
| 20260509183714 | 31 | 168 | 0.0 | 1.6 | 0.00 | 0.08 | 0.08 | 67 | 1011.6 |
| 20260509183209 | 31 | 164 | 3.2 | 4.8 | 0.00 | 0.08 | 0.08 | 68 | 1011.6 |
| 20260509182705 | 31 | 164 | 4.8 | 4.8 | 0.00 | 0.08 | 0.08 | 68 | 1011.7 |
| 20260509182203 | 31 | 164 | 0.0 | 0.0 | 0.00 | 0.08 | 0.08 | 70 | 1011.9 |
| 20260509181700 | 30 | 169 | 0.0 | 0.0 | 0.00 | 0.08 | 0.08 | 69 | 1011.8 |
| 20260509181158 | 30 | 170 | 0.0 | 0.0 | 0.00 | 0.08 | 0.08 | 73 | 1011.8 |
| 20260509180654 | 30 | 169 | 0.0 | 0.0 | 0.00 | 0.08 | 0.08 | 73 | 1011.7 |
| 20260509180150 | 30 | 168 | 0.0 | 0.0 | 0.00 | 0.08 | 0.08 | 71 | 1011.8 |
| 20260509175646 | 30 | 170 | 0.0 | 0.0 | 0.00 | 0.08 | 0.08 | 73 | 1011.8 |
| 20260509175143 | 30 | 171 | 0.0 | 0.0 | 0.00 | 0.08 | 0.08 | 73 | 1012.0 |
| 20260509174639 | 30 | 164 | 0.0 | 0.0 | 0.00 | 0.08 | 0.08 | 73 | 1012.3 |
| 20260509174134 | 31 | 164 | 0.0 | 0.0 | 0.00 | 0.08 | 0.08 | 71 | 1012.2 |
| 20260509173630 | 30 | 164 | 0.0 | 0.0 | 0.00 | 0.08 | 0.08 | 73 | 1012.3 |
| 20260509173126 | 30 | 173 | 1.6 | 1.6 | 0.00 | 0.08 | 0.08 | 73 | 1012.4 |
| 20260509172623 | 30 | 170 | 1.6 | 1.6 | 0.00 | 0.08 | 0.08 | 72 | 1012.3 |
| 20260509172119 | 30 | 171 | 0.0 | 0.0 | 0.00 | 0.08 | 0.08 | 74 | 1012.3 |
| 20260509171615 | 30 | 172 | 0.0 | 0.0 | 0.00 | 0.08 | 0.08 | 74 | 1012.1 |
| 20260509171111 | 30 | 170 | 1.6 | 1.6 | 0.00 | 0.08 | 0.08 | 74 | 1012.2 |
| 20260509170608 | 29 | 161 | 3.2 | 3.2 | 0.00 | 0.08 | 0.08 | 74 | 1012.5 |
| 20260509170104 | 28 | 164 | 1.6 | 3.2 | 0.00 | 0.08 | 0.08 | 76 | 1012.2 |
| 20260509165602 | 27 | 134 | 0.0 | 0.0 | 0.00 | 0.08 | 0.08 | 80 | 1012.6 |
| 20260509165058 | 27 | 137 | 0.0 | 0.0 | 0.00 | 0.08 | 0.08 | 82 | 1012.7 |
| 20260509164554 | 28 | 158 | 1.6 | 1.6 | 0.00 | 0.08 | 0.08 | 79 | 1012.7 |
| 20260509164049 | 28 | 163 | 1.6 | 1.6 | 0.00 | 0.08 | 0.08 | 78 | 1012.4 |
| 20260509163548 | 28 | 156 | 0.0 | 0.0 | 0.00 | 0.08 | 0.08 | 79 | 1012.6 |
| 20260509163043 | 27 | 156 | 3.2 | 4.8 | 0.00 | 0.08 | 0.08 | 81 | 1012.5 |
| 20260509162541 | 27 | 149 | 0.0 | 0.0 | 0.00 | 0.08 | 0.08 | 83 | 1012.2 |
| 20260509162036 | 27 | 141 | 0.0 | 0.0 | 0.00 | 0.08 | 0.08 | 85 | 1012.3 |
| 20260509161527 | 26 | 159 | 3.2 | 3.2 | 0.00 | 0.08 | 0.08 | 84 | 1012.4 |
| 20260509161022 | 26 | 173 | 4.8 | 4.8 | 0.00 | 0.08 | 0.08 | 91 | 1012.4 |
| 20260509160518 | 25 | 153 | 4.8 | 4.8 | 0.00 | 0.08 | 0.08 | 95 | 1012.4 |
| 20260509160014 | 24 | 155 | 3.2 | 3.2 | 0.00 | 0.08 | 0.08 | 97 | 1012.4 |
| 20260509155510 | 24 | 136 | 0.0 | 0.0 | 0.00 | 0.08 | 0.08 | 99 | 1012.3 |
| 20260509155006 | 24 | 152 | 0.0 | 0.0 | 0.00 | 0.08 | 0.08 | 99 | 1012.7 |
| 20260509154503 | 24 | 144 | 0.0 | 0.0 | 0.00 | 0.08 | 0.08 | 99 | 1012.4 |
| 20260509154000 | 23 | 162 | 0.0 | 0.0 | 0.00 | 0.08 | 0.08 | 99 | 1012.7 |
| 20260509153457 | 23 | 162 | 0.0 | 0.0 | 0.00 | 0.08 | 0.08 | 99 | 1012.6 |
| 20260509152954 | 23 | 144 | 0.0 | 1.6 | 0.00 | 0.08 | 0.08 | 99 | 1012.8 |
| 20260509152449 | 23 | 144 | 4.8 | 4.8 | 0.00 | 0.08 | 0.08 | 99 | 1012.5 |
| 20260509151946 | 23 | 142 | 1.6 | 1.6 | 0.00 | 0.08 | 0.08 | 99 | 1012.6 |
| 20260509151442 | 23 | 168 | 3.2 | 3.2 | 0.00 | 0.08 | 0.08 | 99 | 1012.7 |
| 20260509150940 | 23 | 144 | 1.6 | 1.6 | 0.00 | 0.08 | 0.08 | 99 | 1012.7 |
| 20260509150438 | 22 | 151 | 0.0 | 1.6 | 0.00 | 0.08 | 0.08 | 99 | 1013.0 |
| 20260509145937 | 22 | 150 | 1.6 | 1.6 | 0.00 | 0.08 | 0.08 | 99 | 1012.7 |
| 20260509145437 | 22 | 142 | 3.2 | 3.2 | 0.00 | 0.08 | 0.08 | 99 | 1012.6 |
| 20260509144932 | 22 | 158 | 1.6 | 3.2 | 0.00 | 0.08 | 0.08 | 99 | 1012.4 |
| 20260509144430 | 22 | 147 | 0.0 | 0.0 | 0.00 | 0.08 | 0.08 | 99 | 1012.4 |
| 20260509143927 | 22 | 149 | 1.6 | 1.6 | 0.00 | 0.08 | 0.08 | 99 | 1012.4 |
| 20260509143424 | 22 | 144 | 0.0 | 0.0 | 0.00 | 0.08 | 0.08 | 99 | 1012.4 |
| 20260509142920 | 22 | 145 | 0.0 | 0.0 | 0.00 | 0.08 | 0.08 | 99 | 1012.1 |
| 20260509142417 | 22 | 146 | 1.6 | 1.6 | 0.00 | 0.08 | 0.08 | 99 | 1012.0 |
| 20260509141912 | 22 | 165 | 1.6 | 1.6 | 0.00 | 0.08 | 0.08 | 99 | 1012.1 |
| 20260509141410 | 22 | 143 | 0.0 | 0.0 | 0.00 | 0.08 | 0.08 | 99 | 1012.0 |
| 20260509140906 | 22 | 142 | 0.0 | 0.0 | 0.00 | 0.08 | 0.08 | 99 | 1012.1 |
| 20260509140403 | 22 | 147 | 0.0 | 0.0 | 0.00 | 0.08 | 0.08 | 99 | 1012.1 |
| 20260509135901 | 22 | 149 | 0.0 | 0.0 | 0.00 | 0.08 | 0.08 | 99 | 1012.2 |
| 20260509135358 | 22 | 141 | 0.0 | 0.0 | 0.00 | 0.08 | 0.08 | 99 | 1012.2 |
| 20260509134855 | 22 | 141 | 0.0 | 0.0 | 0.00 | 0.08 | 0.08 | 99 | 1012.4 |
| 20260509134353 | 22 | 141 | 0.0 | 0.0 | 0.00 | 0.08 | 0.08 | 99 | 1012.4 |
| 20260509133849 | 22 | 141 | 0.0 | 0.0 | 0.00 | 0.08 | 0.08 | 99 | 1012.5 |
| 20260509133346 | 22 | 141 | 0.0 | 0.0 | 0.00 | 0.08 | 0.08 | 99 | 1012.4 |
| 20260509132845 | 22 | 141 | 0.0 | 0.0 | 0.00 | 0.08 | 0.08 | 99 | 1012.4 |
| 20260509132343 | 22 | 146 | 0.0 | 0.0 | 0.00 | 0.08 | 0.08 | 99 | 1012.8 |
| 20260509131839 | 22 | 146 | 0.0 | 0.0 | 0.00 | 0.08 | 0.08 | 99 | 1012.5 |
| 20260509131336 | 22 | 146 | 0.0 | 0.0 | 0.00 | 0.08 | 0.08 | 99 | 1012.3 |
| 20260509130833 | 22 | 146 | 0.0 | 0.0 | 0.00 | 0.08 | 0.08 | 99 | 1012.2 |
| 20260509130328 | 22 | 146 | 0.0 | 0.0 | 0.00 | 0.08 | 0.08 | 99 | 1012.3 |
| 20260509125825 | 22 | 146 | 0.0 | 0.0 | 0.00 | 0.08 | 0.08 | 99 | 1012.0 |
| 20260509125322 | 22 | 147 | 0.0 | 0.0 | 0.00 | 0.08 | 0.08 | 99 | 1012.0 |
| 20260509124818 | 22 | 139 | 0.0 | 0.0 | 0.00 | 0.08 | 0.08 | 99 | 1011.8 |
| 20260509124315 | 22 | 134 | 0.0 | 0.0 | 0.00 | 0.08 | 0.08 | 99 | 1011.7 |
| 20260509123813 | 22 | 136 | 0.0 | 0.0 | 0.00 | 0.08 | 0.08 | 99 | 1011.8 |
| 20260509123310 | 22 | 132 | 0.0 | 0.0 | 0.00 | 0.08 | 0.08 | 99 | 1011.7 |
| 20260509122806 | 22 | 135 | 0.0 | 0.0 | 0.00 | 0.08 | 0.08 | 99 | 1011.5 |
| 20260509122305 | 22 | 135 | 0.0 | 0.0 | 0.00 | 0.08 | 0.08 | 99 | 1011.8 |
| 20260509121759 | 22 | 135 | 0.0 | 0.0 | 0.00 | 0.08 | 0.08 | 99 | 1011.8 |
| 20260509121257 | 22 | 136 | 0.0 | 0.0 | 0.00 | 0.08 | 0.08 | 99 | 1012.3 |
| 20260509120755 | 22 | 136 | 0.0 | 0.0 | 0.00 | 0.08 | 0.08 | 99 | 1012.2 |
| 20260509120252 | 22 | 134 | 0.0 | 0.0 | 0.00 | 0.08 | 0.08 | 99 | 1012.0 |
| 20260509115751 | 22 | 137 | 0.0 | 0.0 | 0.00 | 0.08 | 0.08 | 99 | 1012.0 |
| 20260509115247 | 22 | 138 | 0.0 | 0.0 | 0.00 | 0.08 | 0.08 | 99 | 1012.2 |
| 20260509114745 | 22 | 139 | 0.0 | 0.0 | 0.00 | 0.08 | 0.08 | 99 | 1012.0 |
| 20260509114244 | 22 | 140 | 0.0 | 0.0 | 0.00 | 0.08 | 0.08 | 99 | 1012.0 |
| 20260509113742 | 22 | 139 | 0.0 | 0.0 | 0.00 | 0.08 | 0.08 | 99 | 1012.0 |
| 20260509113239 | 22 | 135 | 0.0 | 0.0 | 0.00 | 0.08 | 0.08 | 99 | 1012.2 |
| 20260509112736 | 22 | 137 | 0.0 | 0.0 | 0.00 | 0.08 | 0.08 | 99 | 1012.5 |
| 20260509112233 | 22 | 137 | 0.0 | 0.0 | 0.00 | 0.08 | 0.08 | 99 | 1012.6 |
| 20260509111730 | 22 | 130 | 0.0 | 0.0 | 0.00 | 0.08 | 0.08 | 99 | 1012.7 |
| 20260509111226 | 22 | 138 | 0.0 | 0.0 | 0.00 | 0.08 | 0.08 | 99 | 1012.9 |
| 20260509110724 | 22 | 135 | 0.0 | 0.0 | 0.00 | 0.08 | 0.08 | 99 | 1012.8 |
| 20260509110220 | 22 | 134 | 0.0 | 0.0 | 0.00 | 0.08 | 0.08 | 99 | 1012.9 |
| 20260509105719 | 22 | 136 | 0.0 | 0.0 | 0.00 | 0.08 | 0.08 | 99 | 1012.7 |
| 20260509105216 | 22 | 132 | 0.0 | 0.0 | 0.00 | 0.08 | 0.08 | 99 | 1012.6 |
| 20260509104713 | 22 | 127 | 0.0 | 0.0 | 0.00 | 0.08 | 0.08 | 99 | 1012.8 |
| 20260509104210 | 22 | 132 | 0.0 | 0.0 | 0.00 | 0.08 | 0.08 | 99 | 1012.5 |
| 20260509103708 | 22 | 132 | 0.0 | 0.0 | 0.00 | 0.08 | 0.08 | 99 | 1012.6 |
| 20260509103205 | 22 | 135 | 0.0 | 0.0 | 0.00 | 0.08 | 0.08 | 99 | 1012.6 |
| 20260509102703 | 22 | 139 | 0.0 | 0.0 | 0.00 | 0.08 | 0.08 | 99 | 1012.5 |
| 20260509102200 | 22 | 142 | 0.0 | 0.0 | 0.00 | 0.08 | 0.08 | 99 | 1012.5 |
| 20260509101656 | 22 | 142 | 0.0 | 0.0 | 0.00 | 0.08 | 0.08 | 99 | 1012.2 |
| 20260509101153 | 22 | 143 | 0.0 | 0.0 | 0.00 | 0.08 | 0.08 | 99 | 1012.1 |
| 20260509100650 | 22 | 145 | 0.0 | 0.0 | 0.00 | 0.08 | 0.08 | 99 | 1011.8 |
| 20260509100147 | 22 | 146 | 0.0 | 0.0 | 0.00 | 0.08 | 0.08 | 99 | 1011.7 |
| 20260509095644 | 22 | 137 | 0.0 | 0.0 | 0.00 | 0.08 | 0.08 | 99 | 1011.8 |
| 20260509095141 | 22 | 137 | 0.0 | 0.0 | 0.00 | 0.08 | 0.08 | 99 | 1011.3 |
| 20260509094637 | 22 | 137 | 0.0 | 0.0 | 0.00 | 0.08 | 0.08 | 99 | 1011.4 |
| 20260509094135 | 22 | 137 | 0.0 | 0.0 | 0.00 | 0.08 | 0.08 | 99 | 1011.6 |
| 20260509093633 | 22 | 137 | 0.0 | 0.0 | 0.00 | 0.08 | 0.08 | 99 | 1011.5 |
| 20260509093130 | 22 | 137 | 0.0 | 0.0 | 0.13 | 0.08 | 0.08 | 99 | 1011.6 |
| 20260509092628 | 22 | 137 | 0.0 | 0.0 | 0.13 | 0.08 | 0.08 | 99 | 1011.5 |
| 20260509092126 | 22 | 139 | 0.0 | 0.0 | 0.00 | 0.05 | 0.05 | 99 | 1011.4 |
| 20260509091624 | 22 | 139 | 0.0 | 0.0 | 0.00 | 0.05 | 0.05 | 99 | 1011.4 |
| 20260509091120 | 22 | 139 | 0.0 | 0.0 | 0.00 | 0.05 | 0.05 | 99 | 1011.3 |
| 20260509090617 | 22 | 138 | 0.0 | 0.0 | 0.00 | 0.05 | 0.05 | 99 | 1011.1 |
| 20260509090115 | 22 | 141 | 0.0 | 0.0 | 0.18 | 0.05 | 0.05 | 99 | 1011.1 |
| 20260509085612 | 22 | 141 | 0.0 | 0.0 | 0.18 | 0.05 | 0.05 | 99 | 1011.5 |
| 20260509085108 | 22 | 141 | 0.0 | 0.0 | 0.13 | 0.03 | 0.03 | 99 | 1011.6 |
| 20260509084605 | 22 | 135 | 0.0 | 0.0 | 0.13 | 0.03 | 0.03 | 99 | 1011.5 |
| 20260509084057 | 22 | 130 | 0.0 | 0.0 | 0.00 | 0.00 | 0.00 | 99 | 1011.7 |
| 20260509083554 | 22 | 135 | 0.0 | 0.0 | 0.00 | 0.00 | 0.00 | 99 | 1011.6 |
| 20260509083050 | 22 | 135 | 0.0 | 0.0 | 0.00 | 0.00 | 0.00 | 99 | 1011.8 |
| 20260509082548 | 22 | 135 | 0.0 | 0.0 | 0.00 | 0.00 | 0.00 | 99 | 1011.8 |
| 20260509082044 | 22 | 135 | 0.0 | 0.0 | 0.00 | 0.00 | 0.00 | 99 | 1011.7 |
| 20260509081542 | 22 | 135 | 0.0 | 0.0 | 0.00 | 0.00 | 0.00 | 99 | 1011.5 |
| 20260509081038 | 22 | 142 | 0.0 | 0.0 | 0.00 | 0.00 | 0.00 | 99 | 1011.8 |
| 20260509080537 | 22 | 140 | 0.0 | 0.0 | 0.00 | 0.00 | 0.00 | 99 | 1011.7 |
| 20260509080035 | 22 | 142 | 0.0 | 0.0 | 0.00 | 0.00 | 0.00 | 99 | 1011.7 |
| 20260509075531 | 22 | 147 | 0.0 | 0.0 | 0.00 | 0.00 | 0.00 | 99 | 1011.5 |
| 20260509075030 | 22 | 141 | 1.6 | 1.6 | 0.00 | 0.00 | 0.00 | 99 | 1011.7 |
| 20260509074526 | 22 | 144 | 0.0 | 1.6 | 0.00 | 0.00 | 0.00 | 99 | 1011.6 |
| 20260509074023 | 22 | 140 | 0.0 | 0.0 | 0.00 | 0.00 | 0.00 | 99 | 1011.4 |
| 20260509073519 | 22 | 152 | 3.2 | 3.2 | 0.00 | 0.00 | 0.00 | 99 | 1011.2 |
| 20260509073016 | 22 | 141 | 0.0 | 0.0 | 0.00 | 0.00 | 0.00 | 99 | 1011.4 |
| 20260509072512 | 22 | 141 | 0.0 | 0.0 | 0.00 | 0.00 | 0.00 | 99 | 1011.6 |
| 20260509072009 | 22 | 143 | 0.0 | 0.0 | 0.00 | 0.00 | 0.00 | 99 | 1011.6 |
| 20260509071506 | 22 | 149 | 3.2 | 3.2 | 0.00 | 0.00 | 0.00 | 99 | 1011.6 |
| 20260509071003 | 22 | 145 | 0.0 | 0.0 | 0.00 | 0.00 | 0.00 | 99 | 1011.7 |
| 20260509070501 | 22 | 149 | 0.0 | 1.6 | 0.00 | 0.00 | 0.00 | 99 | 1011.7 |
| 20260509065956 | 22 | 153 | 3.2 | 3.2 | 0.00 | 0.00 | 0.00 | 99 | 1011.8 |
| 20260509065452 | 22 | 167 | 3.2 | 4.8 | 0.00 | 0.00 | 0.00 | 99 | 1011.9 |
| 20260509064948 | 22 | 147 | 1.6 | 1.6 | 0.00 | 0.00 | 0.00 | 99 | 1012.0 |
| 20260509064446 | 22 | 155 | 1.6 | 3.2 | 0.00 | 0.00 | 0.00 | 99 | 1011.7 |
| 20260509063944 | 22 | 144 | 0.0 | 0.0 | 0.00 | 0.00 | 0.00 | 99 | 1011.6 |
| 20260509063444 | 22 | 141 | 1.6 | 1.6 | 0.00 | 0.00 | 0.00 | 99 | 1011.4 |
| 20260509062942 | 22 | 151 | 1.6 | 3.2 | 0.00 | 0.00 | 0.00 | 98 | 1011.2 |
| 20260509062439 | 22 | 162 | 0.0 | 1.6 | 0.00 | 0.00 | 0.00 | 98 | 1011.3 |
| 20260509061937 | 22 | 146 | 1.6 | 3.2 | 0.00 | 0.00 | 0.00 | 98 | 1011.4 |